TimeEST,TemperatureF,Dew PointF,Humidity,Sea Level PressureIn,VisibilityMPH,Wind Direction,Wind SpeedMPH,Gust SpeedMPH,PrecipitationIn,Events,Conditions,WindDirDegrees,DateUTC
12:53 AM,46.0,43.0,89,30.11,3.0,SW,4.6,-,N/A,,Overcast,220,2012-12-03 05:53:00
1:40 AM,46.4,42.8,87,30.10,2.5,SSW,3.5,-,N/A,,Overcast,200,2012-12-03 06:40:00
1:53 AM,46.0,44.1,93,30.12,2.5,Calm,Calm,-,N/A,,Overcast,0,2012-12-03 06:53:00
2:01 AM,46.4,42.8,87,30.11,3.0,SSW,3.5,-,N/A,,Overcast,210,2012-12-03 07:01:00
2:31 AM,46.4,44.6,93,30.11,2.5,Calm,Calm,-,N/A,,Overcast,0,2012-12-03 07:31:00
2:53 AM,45.0,43.0,93,30.12,2.5,Calm,Calm,-,N/A,,Overcast,0,2012-12-03 07:53:00
3:12 AM,42.8,41.0,93,30.12,1.2,Calm,Calm,-,N/A,,Mostly Cloudy,0,2012-12-03 08:12:00
3:38 AM,42.8,41.0,93,30.12,0.5,Calm,Calm,-,N/A,Fog,Fog,0,2012-12-03 08:38:00
3:44 AM,42.8,41.0,93,30.12,1.0,Calm,Calm,-,N/A,,Partly Cloudy,0,2012-12-03 08:44:00
3:53 AM,42.1,41.0,96,30.13,0.5,Calm,Calm,-,N/A,Fog,Fog,0,2012-12-03 08:53:00
3:59 AM,42.8,39.2,87,30.12,0.2,Calm,Calm,-,N/A,Fog,Fog,0,2012-12-03 08:59:00
4:02 AM,41.0,39.2,93,30.12,0.2,Calm,Calm,-,N/A,Fog,Fog,0,2012-12-03 09:02:00
4:31 AM,37.4,35.6,93,30.13,0.2,Calm,Calm,-,N/A,Fog,Fog,0,2012-12-03 09:31:00
4:41 AM,37.4,35.6,93,30.14,0.2,Calm,Calm,-,N/A,Fog,Fog,0,2012-12-03 09:41:00
4:50 AM,37.4,35.6,93,30.14,0.2,Calm,Calm,-,N/A,Fog,Fog,0,2012-12-03 09:50:00
4:53 AM,37.0,36.0,96,30.15,0.2,Calm,Calm,-,N/A,Fog,Fog,0,2012-12-03 09:53:00
5:00 AM,35.6,35.6,100,30.14,0.2,Calm,Calm,-,N/A,Fog,Fog,0,2012-12-03 10:00:00
5:11 AM,35.6,33.8,93,30.15,0.2,Calm,Calm,-,N/A,Fog,Fog,0,2012-12-03 10:11:00
5:53 AM,37.0,36.0,96,30.16,0.2,WSW,3.5,-,N/A,Fog,Fog,250,2012-12-03 10:53:00
6:53 AM,39.0,37.9,96,30.18,0.2,SW,3.5,-,N/A,Fog,Fog,230,2012-12-03 11:53:00
7:53 AM,39.0,37.9,96,30.19,0.2,West,3.5,-,N/A,Fog,Fog,260,2012-12-03 12:53:00
8:53 AM,41.0,39.9,96,30.21,0.2,Calm,Calm,-,N/A,Fog,Fog,0,2012-12-03 13:53:00
9:53 AM,44.1,43.0,96,30.21,0.2,Calm,Calm,-,N/A,Fog,Fog,0,2012-12-03 14:53:00
10:39 AM,48.2,46.4,93,30.21,1.5,Calm,Calm,-,N/A,,Mostly Cloudy,0,2012-12-03 15:39:00
10:43 AM,48.2,46.4,93,30.20,2.0,Calm,Calm,-,N/A,,Mostly Cloudy,0,2012-12-03 15:43:00
10:49 AM,50.0,48.2,94,30.21,3.0,Calm,Calm,-,N/A,,Partly Cloudy,0,2012-12-03 15:49:00
10:50 AM,50.0,48.9,96,30.21,3.0,Calm,Calm,-,N/A,,Partly Cloudy,0,2012-12-03 15:50:00
11:53 AM,59.0,46.0,62,30.20,10.0,Variable,4.6,-,N/A,,Mostly Cloudy,0,2012-12-03 16:53:00
12:53 PM,59.0,45.0,60,30.18,10.0,NW,8.1,-,N/A,,Clear,320,2012-12-03 17:53:00
1:53 PM,61.0,45.0,56,30.18,10.0,Variable,3.5,-,N/A,,Clear,0,2012-12-03 18:53:00
2:53 PM,61.0,44.1,54,30.19,10.0,Calm,Calm,-,N/A,,Clear,0,2012-12-03 19:53:00
3:53 PM,55.9,44.1,64,30.20,10.0,Calm,Calm,-,N/A,,Clear,0,2012-12-03 20:53:00
4:53 PM,50.0,43.0,77,30.22,10.0,Calm,Calm,-,N/A,,Clear,0,2012-12-03 21:53:00
5:53 PM,45.0,41.0,86,30.25,10.0,Calm,Calm,-,N/A,,Clear,0,2012-12-03 22:53:00
6:53 PM,39.0,37.9,96,30.27,6.0,Calm,Calm,-,N/A,,Clear,0,2012-12-03 23:53:00
7:53 PM,39.9,37.0,89,30.27,8.0,Calm,Calm,-,N/A,,Scattered Clouds,0,2012-12-04 00:53:00
8:53 PM,39.0,37.9,96,30.27,6.0,Calm,Calm,-,N/A,,Overcast,0,2012-12-04 01:53:00
9:53 PM,39.0,37.9,96,30.26,5.0,Calm,Calm,-,N/A,,Mostly Cloudy,0,2012-12-04 02:53:00
10:39 PM,37.4,35.6,93,30.27,1.5,Calm,Calm,-,N/A,,Clear,0,2012-12-04 03:39:00
10:43 PM,37.4,35.6,93,30.26,0.8,Calm,Calm,-,N/A,,Clear,0,2012-12-04 03:43:00
10:51 PM,37.4,35.6,93,30.26,1.8,Calm,Calm,-,N/A,,Clear,0,2012-12-04 03:51:00
10:53 PM,37.0,35.1,93,30.27,3.0,Calm,Calm,-,N/A,,Clear,0,2012-12-04 03:53:00
11:01 PM,37.4,35.6,93,30.27,1.8,Calm,Calm,-,N/A,,Partly Cloudy,0,2012-12-04 04:01:00
11:08 PM,37.4,35.6,93,30.27,1.0,Calm,Calm,-,N/A,,Partly Cloudy,0,2012-12-04 04:08:00
11:12 PM,37.4,35.6,93,30.27,2.0,Calm,Calm,-,N/A,,Partly Cloudy,0,2012-12-04 04:12:00
11:20 PM,37.4,35.6,93,30.27,3.0,Calm,Calm,-,N/A,,Scattered Clouds,0,2012-12-04 04:20:00
11:53 PM,37.9,36.0,93,30.27,5.0,Calm,Calm,-,N/A,,Overcast,0,2012-12-04 04:53:00